Tracking 25612 objects as of 20-May-2022
HD Live streaming from Space Station
objects crossing your sky now

GAOFEN 3 DEB

Track GAOFEN 3 DEB now!
10-day predictions


NORAD ID: 42679
Int'l Code: 2016-049D
Perigee: 743.4 km
Apogee: 752.5 km
Inclination: 98.4 °
Period: 99.6 minutes
Semi major axis: 7118 km
RCS: Unknown
Launch date: August 9, 2016
Source: People's Republic of China (PRC)
Launch site: Jiuquan Satellite Launch Center, China (JSC)

Note: This is SATELLITE DEBRIS
aabbcc
Your satellite tracking list
Your tracking list is empty




NASA's NSSDC Master Catalog

Two Line Element Set (TLE):
1 42679U 16049D   22139.85610093  .00000273  00000-0  89878-4 0  9993
2 42679  98.3647 154.7442 0006452 188.7529 171.3551 14.45371975304557
Source of the keplerian elements: AFSPC